TimeMST,TemperatureF,Dew PointF,Humidity,Sea Level PressureIn,VisibilityMPH,Wind Direction,Wind SpeedMPH,Gust SpeedMPH,PrecipitationIn,Events,Conditions,WindDirDegrees,DateUTC
12:55 AM,41.0,39.0,93,29.86,5.0,South,6.9,-,0.03,Rain,Rain,190,2013-03-03 07:55:00
1:21 AM,41.0,37.4,87,29.80,10.0,SE,9.2,-,0.03,,Overcast,140,2013-03-03 08:21:00
1:55 AM,39.9,37.9,93,29.82,10.0,SSE,6.9,-,0.03,,Overcast,160,2013-03-03 08:55:00
2:55 AM,39.9,37.0,89,29.78,10.0,Variable,5.8,-,N/A,,Mostly Cloudy,0,2013-03-03 09:55:00
3:24 AM,39.2,37.4,93,29.73,10.0,SSE,6.9,-,0.00,Rain,Light Rain,160,2013-03-03 10:24:00
3:35 AM,39.2,37.4,93,29.73,10.0,SSE,12.7,-,0.00,,Overcast,160,2013-03-03 10:35:00
3:55 AM,41.0,37.0,86,29.73,10.0,South,10.4,-,0.00,,Overcast,170,2013-03-03 10:55:00
4:55 AM,39.2,35.6,87,29.72,10.0,SW,8.1,-,N/A,,Overcast,230,2013-03-03 11:55:00
5:55 AM,39.0,24.1,55,29.75,10.0,WSW,15.0,23.0,0.01,,Mostly Cloudy,250,2013-03-03 12:55:00
6:55 AM,37.0,19.0,48,29.75,10.0,WSW,21.9,29.9,N/A,,Clear,240,2013-03-03 13:55:00
7:55 AM,35.1,19.9,54,29.80,10.0,South,6.9,-,N/A,,Partly Cloudy,190,2013-03-03 14:55:00
8:55 AM,37.9,21.9,53,29.79,10.0,WSW,12.7,-,N/A,,Mostly Cloudy,240,2013-03-03 15:55:00
9:55 AM,37.0,19.0,48,29.78,10.0,WSW,13.8,26.5,N/A,,Mostly Cloudy,240,2013-03-03 16:55:00
10:55 AM,36.0,17.1,46,29.80,10.0,West,17.3,23.0,N/A,,Overcast,260,2013-03-03 17:55:00
11:55 AM,37.0,19.9,50,29.82,10.0,WSW,10.4,19.6,N/A,,Overcast,240,2013-03-03 18:55:00
12:55 PM,37.9,19.9,48,29.83,10.0,WSW,8.1,-,N/A,,Overcast,240,2013-03-03 19:55:00
1:55 PM,37.0,19.9,50,29.85,10.0,WSW,12.7,-,N/A,,Overcast,250,2013-03-03 20:55:00
2:55 PM,37.0,21.9,54,29.88,10.0,West,6.9,-,N/A,,Overcast,260,2013-03-03 21:55:00
3:55 PM,37.0,23.0,57,29.92,10.0,WSW,5.8,-,N/A,,Overcast,250,2013-03-03 22:55:00
4:33 PM,33.8,24.8,70,29.91,1.2,North,19.6,27.6,0.00,Snow,Snow,10,2013-03-03 23:33:00
4:35 PM,32.0,26.6,80,29.91,0.5,North,19.6,27.6,0.00,Snow,Snow,360,2013-03-03 23:35:00
4:40 PM,30.2,28.4,93,29.92,0.2,North,15.0,-,0.01,Snow,Snow,360,2013-03-03 23:40:00
4:55 PM,30.0,28.9,96,29.99,0.8,NNW,3.5,-,0.07,Snow,Snow,330,2013-03-03 23:55:00
5:08 PM,30.2,28.4,93,29.94,2.0,Calm,Calm,-,0.00,Snow,Light Snow,0,2013-03-04 00:08:00
5:19 PM,30.2,28.4,93,29.94,2.0,Calm,Calm,-,0.00,Snow,Light Snow,0,2013-03-04 00:19:00
5:55 PM,30.9,25.0,79,30.03,2.0,NNE,4.6,-,0.00,Snow,Light Snow,20,2013-03-04 00:55:00
6:02 PM,30.2,26.6,86,29.97,9.0,North,3.5,-,0.00,,Overcast,10,2013-03-04 01:02:00
6:55 PM,28.0,25.0,88,30.08,10.0,NNE,3.5,-,0.00,,Overcast,30,2013-03-04 01:55:00
7:55 PM,28.4,19.4,69,30.04,10.0,North,8.1,-,N/A,,Mostly Cloudy,10,2013-03-04 02:55:00
8:55 PM,26.1,18.0,71,30.15,10.0,North,6.9,-,N/A,,Clear,10,2013-03-04 03:55:00
9:55 PM,26.1,17.1,69,30.17,10.0,North,6.9,-,N/A,,Partly Cloudy,360,2013-03-04 04:55:00
10:55 PM,25.0,17.1,72,30.20,10.0,North,3.5,-,N/A,,Clear,360,2013-03-04 05:55:00
11:55 PM,23.0,19.0,85,30.22,10.0,Calm,Calm,-,N/A,,Mostly Cloudy,0,2013-03-04 06:55:00